Voltar ao catálogo

METEOR 3-2

AtivoMeteoPO
NORAD 19336·PAYLOAD·🇷🇺 Russia

Lançado Jul 26, 1988 de Plesetsk Cosmodrome

Loading…

Próximas Passagens (próximas 24 horas)

TLE

AtualizadoSource: Space-Track

Época: Sep 14, 2026, 12:04 UTC

1 19336U 88064A   26257.50331339  .00000067  00000-0  14085-3 0  9991
2 19336  82.5382 267.5408 0016813 348.5391 176.8526 13.17285230833412

Acompanhe METEOR 3-2 em tempo real com AllMySat

Download on the App Store